Weather History for KSPS - May, 2014

Change the Weather History Date:

Tuesday, May 6, 2014

  Actual Average Record
Temperature  
Mean Temperature 82 °F 69 °F  
Max Temperature 97 °F 81 °F 97 °F (2014)
Min Temperature 66 °F 56 °F 42 °F (1944)
Cooling Degree Days 17 5  
Month to date cooling degree days 53 27  
Year to date cooling degree days 159 119  
Growing Degree Days 32 (Base 50)    
Moisture  
Dew Point 57 °F    
Average Humidity 46    
Maximum Humidity 68    
Minimum Humidity 24    
Precipitation  
Precipitation 0.00 in 0.11 in 1.40 in (1919)
Month to date precipitation 0.00 0.67  
Year to date precipitation 4.02 8.37  
Sea Level Pressure  
Sea Level Pressure 29.59 in    
Wind  
Wind Speed 19 mph (SSE)    
Max Wind Speed 32 mph    
Max Gust Speed 40 mph    
Visibility 10 miles    
Events      
T = Trace of Precipitation, MM = Missing Value Source: NWS Daily Summary

Daily Weather History Graph

Daily Weather History Graph

Search for Another Location

Airport or City:

Trip Planner

Search our weather history database for the weather conditions in past years. The results will help you decide how hot, cold, wet, or windy it might be!

Date:

Astronomy

May. 06, 2014 Rise Set
Actual Time 6:39 AM CDT 8:21 PM CDT
Civil Twilight 6:12 AM CDT 8:48 PM CDT
Nautical Twilight 5:40 AM CDT 9:21 PM CDT
Astronomical Twilight 5:06 AM CDT 9:55 PM CDT
Moon 12:54 PM CDT (5/6) 1:44 AM CDT (5/6)
Length of Visible Light 14h 35m
Length of Day
13h 41m
Waxing Crescent, 46% of the Moon is Illuminated
May 6
Waxing Crescent
May 6
First Quarter
May 14
Full
May 21
Last Quarter
May 28
New

Hourly Weather History & Observations

Time (CDT) Temp. Heat Index Dew Point Humidity Pressure Visibility Wind Dir Wind Speed Gust Speed Precip Events Conditions
12:52 AM 77.0 °F - 55.4 °F 47% 29.69 in 10.0 mi South 15.0 mph - N/A   Clear
1:52 AM 75.0 °F - 55.0 °F 50% 29.62 in 10.0 mi South 13.8 mph - N/A   Clear
2:52 AM 75.0 °F - 54.0 °F 48% 29.61 in 10.0 mi South 13.8 mph - N/A   Clear
6:52 AM 66.9 °F - 55.0 °F 66% 29.63 in 10.0 mi South 10.4 mph - N/A   Clear
7:52 AM 70.0 °F - 55.9 °F 61% 29.64 in 10.0 mi South 11.5 mph - N/A   Clear
9:52 AM 81.0 °F 80.8 °F 55.9 °F 42% 29.65 in 10.0 mi South 19.6 mph - N/A   Clear
10:52 AM 86.0 °F 84.5 °F 55.0 °F 35% 29.64 in 10.0 mi SSW 17.3 mph - N/A   Clear
11:52 AM 88.0 °F 86.5 °F 55.9 °F 34% 29.63 in 10.0 mi South 12.7 mph 20.7 mph N/A   Partly Cloudy
12:52 PM 93.0 °F 90.8 °F 54.0 °F 27% 29.60 in 10.0 mi South 10.4 mph 21.9 mph N/A   Partly Cloudy
1:52 PM 95.0 °F 92.7 °F 54.0 °F 25% 29.57 in 10.0 mi South 17.3 mph 28.8 mph N/A   Scattered Clouds
2:52 PM 97.0 °F 96.1 °F 57.9 °F 27% 29.55 in 10.0 mi SSE 24.2 mph 34.5 mph N/A   Scattered Clouds
3:52 PM 95.0 °F 94.0 °F 57.9 °F 29% 29.54 in 10.0 mi SSE 24.2 mph 34.5 mph N/A   Mostly Cloudy
4:52 PM 96.1 °F 94.8 °F 57.0 °F 27% 29.52 in 10.0 mi SSE 26.5 mph 31.1 mph N/A   Mostly Cloudy
5:52 PM 95.0 °F 93.7 °F 57.0 °F 28% 29.52 in 10.0 mi SSE 24.2 mph 28.8 mph N/A   Clear
6:52 PM 90.0 °F 89.7 °F 60.1 °F 37% 29.52 in 10.0 mi SE 25.3 mph 35.7 mph N/A   Mostly Cloudy
7:52 PM 84.9 °F 85.0 °F 61.0 °F 44% 29.55 in 10.0 mi SSE 28.8 mph 36.8 mph N/A   Clear
8:52 PM 81.0 °F 81.6 °F 60.1 °F 49% 29.54 in 10.0 mi SSE 23.0 mph 35.7 mph N/A   Mostly Cloudy
9:52 PM 80.1 °F 81.1 °F 61.0 °F 52% 29.57 in 10.0 mi South 23.0 mph 35.7 mph N/A   Clear
10:52 PM 79.0 °F - 60.1 °F 52% 29.58 in 10.0 mi SSE 27.6 mph 38.0 mph N/A   Clear
11:52 PM 77.0 °F - 61.0 °F 58% 29.60 in 10.0 mi South 23.0 mph 29.9 mph N/A   Clear